Weather History for Crockett, TX

Change the Weather History Date:

Sunday, April 14, 2013

  Actual Average (KLFK) Record (KLFK)
Temperature  
Mean Temperature 64 °F 66 °F  
Max Temperature 80 °F 78 °F 90 °F (1972)
Min Temperature 48 °F 54 °F 35 °F (2008)
Degree Days  
Heating Degree Days 1 3  
Month to date heating degree days 47  
Since 1 July heating degree days 1891  
Cooling Degree Days 0 4  
Month to date cooling degree days 42  
Year to date cooling degree days 102  
Growing Degree Days 14 (Base 50)    
Moisture  
Dew Point 58 °F    
Average Humidity 76    
Maximum Humidity 100    
Minimum Humidity 54    
Precipitation  
Precipitation 0.00 in 0.09 in 4.00 in (1927)
Month to date precipitation 1.37  
Year to date precipitation 13.20  
Snow  
Snow 0.00 in - - ()
Month to date snowfall  
Since 1 July snowfall  
Snow Depth -    
Sea Level Pressure  
Sea Level Pressure 29.76 in    
Wind  
Wind Speed 3 mph (South)    
Max Wind Speed 14 mph    
Max Gust Speed 22 mph    
Visibility 9 miles    
Events      
T = Trace of Precipitation, MM = Missing Value Source: NWS Daily Summary

Daily Weather History Graph

Daily Weather History Graph

Search for Another Location

Airport:

Trip Planner

Search our weather history database for the weather conditions in past years. The results will help you decide how hot, cold, wet, or windy it might be!

Date:

Astronomy

Apr. 14, 2013 Rise Set
Actual Time 6:54 AM CDT 7:49 PM CDT
Civil Twilight 6:29 AM CDT 8:14 PM CDT
Nautical Twilight 6:00 AM CDT 8:44 PM CDT
Astronomical Twilight 5:29 AM CDT 9:14 PM CDT
Moon 9:43 AM CDT (4/14) 11:52 PM CDT (4/14)
Length of Visible Light 13h 45m
Length of Day
12h 55m
Waxing Crescent, 17% of the Moon is Illuminated
Apr 14
Waxing Crescent
Apr 18
First Quarter
Apr 25
Full
May 2
Last Quarter
May 9
New

Hourly Weather History & Observations

Time (CDT) Temp. Heat Index Dew Point Humidity Pressure Visibility Wind Dir Wind Speed Gust Speed Precip Events Conditions
12:15 AM 60.8 °F - 51.8 °F 72% 29.86 in 10.0 mi Calm Calm - N/A   Clear
12:35 AM 57.2 °F - 51.8 °F 82% 29.85 in 9.0 mi Calm Calm - N/A   Clear
12:55 AM 57.2 °F - 51.8 °F 82% 29.84 in 10.0 mi Calm Calm - N/A   Clear
1:15 AM 55.4 °F - 51.8 °F 88% 29.83 in 10.0 mi Calm Calm - N/A   Clear
1:35 AM 55.4 °F - 51.8 °F 88% 29.82 in 10.0 mi Calm Calm - N/A   Clear
1:55 AM 55.4 °F - 51.8 °F 88% 29.82 in 10.0 mi Calm Calm - N/A   Clear
2:15 AM 53.6 °F - 50.0 °F 88% 29.81 in 10.0 mi Calm Calm - N/A   Clear
2:35 AM 53.6 °F - 50.0 °F 88% 29.81 in 10.0 mi Calm Calm - N/A   Clear
2:55 AM 51.8 °F - 50.0 °F 94% 29.81 in 10.0 mi Calm Calm - N/A   Clear
3:15 AM 51.8 °F - 48.2 °F 88% 29.81 in 10.0 mi Calm Calm - N/A   Clear
3:35 AM 51.8 °F - 48.2 °F 88% 29.80 in 10.0 mi Calm Calm - N/A   Clear
3:55 AM 50.0 °F - 48.2 °F 94% 29.79 in 10.0 mi Calm Calm - N/A   Clear
4:15 AM 50.0 °F - 48.2 °F 94% 29.79 in 10.0 mi Calm Calm - N/A   Clear
4:35 AM 50.0 °F - 48.2 °F 94% 29.78 in 9.0 mi Calm Calm - N/A   Clear
4:55 AM 50.0 °F - 48.2 °F 94% 29.78 in 10.0 mi Calm Calm - N/A   Clear
5:15 AM 50.0 °F - 48.2 °F 94% 29.77 in 9.0 mi Calm Calm - N/A   Clear
5:35 AM 50.0 °F - 48.2 °F 94% 29.77 in 8.0 mi Calm Calm - N/A   Clear
5:55 AM 51.8 °F - 50.0 °F 94% 29.77 in 10.0 mi Calm Calm - N/A   Clear
6:15 AM 48.2 °F - 48.2 °F 100% 29.78 in 9.0 mi Calm Calm - N/A   Clear
6:35 AM 48.2 °F - 48.2 °F 100% 29.79 in 9.0 mi Calm Calm - N/A   Clear
6:55 AM 48.2 °F - 48.2 °F 100% 29.80 in 7.0 mi Calm Calm - N/A   Clear
7:15 AM 48.2 °F - 48.2 °F 100% 29.80 in 6.0 mi Calm Calm - N/A   Clear
7:35 AM 51.8 °F - 50.0 °F 94% 29.80 in 5.0 mi Calm Calm - N/A   Clear
7:55 AM 51.8 °F - 50.0 °F 94% 29.80 in 7.0 mi Calm Calm - N/A   Clear
8:15 AM 57.2 °F - 55.4 °F 94% 29.80 in 8.0 mi Calm Calm - N/A   Clear
8:35 AM 60.8 °F - 57.2 °F 88% 29.80 in 8.0 mi Calm Calm - N/A   Clear
8:55 AM 62.6 °F - 57.2 °F 82% 29.80 in 9.0 mi Calm Calm - N/A   Clear
9:15 AM 64.4 °F - 59.0 °F 83% 29.81 in 9.0 mi South 4.6 mph - N/A   Clear
9:35 AM 66.2 °F - 60.8 °F 83% 29.82 in 8.0 mi SSW 6.9 mph - N/A   Clear
9:55 AM 66.2 °F - 60.8 °F 83% 29.82 in 8.0 mi South 8.1 mph - N/A   Clear
10:15 AM 66.2 °F - 60.8 °F 83% 29.81 in 9.0 mi South 8.1 mph - N/A   Scattered Clouds
10:35 AM 69.8 °F - 60.8 °F 73% 29.82 in 9.0 mi South 9.2 mph - N/A   Mostly Cloudy
10:55 AM 69.8 °F - 60.8 °F 73% 29.82 in 10.0 mi SW 6.9 mph - N/A   Mostly Cloudy
11:15 AM 71.6 °F - 60.8 °F 69% 29.82 in 10.0 mi SW 6.9 mph - N/A   Scattered Clouds
11:35 AM 71.6 °F - 59.0 °F 64% 29.80 in 9.0 mi South 10.4 mph - N/A   Partly Cloudy
11:55 AM 71.6 °F - 59.0 °F 64% 29.80 in 9.0 mi South 10.4 mph - N/A   Clear
12:15 PM 73.4 °F - 59.0 °F 61% 29.79 in 10.0 mi South 10.4 mph - N/A   Clear
12:35 PM 73.4 °F - 59.0 °F 61% 29.78 in 10.0 mi South 9.2 mph - N/A   Clear
12:55 PM 75.2 °F - 60.8 °F 61% 29.77 in 10.0 mi SSW 8.1 mph - N/A   Clear
1:15 PM 77.0 °F - 60.8 °F 57% 29.76 in 9.0 mi South 8.1 mph - N/A   Clear
1:35 PM 77.0 °F - 60.8 °F 57% 29.75 in 9.0 mi South 12.7 mph 17.3 mph N/A   Clear
1:55 PM 78.8 °F - 60.8 °F 54% 29.74 in 10.0 mi South 9.2 mph 16.1 mph N/A   Clear
2:15 PM 78.8 °F - 60.8 °F 54% 29.73 in 9.0 mi SSE 10.4 mph - N/A   Clear
2:35 PM 78.8 °F - 62.6 °F 57% 29.72 in 9.0 mi South 12.7 mph 18.4 mph N/A   Clear
3:15 PM 80.6 °F 81.8 °F 62.6 °F 54% 29.70 in 10.0 mi South 9.2 mph 16.1 mph N/A   Clear
3:35 PM 80.6 °F 82.3 °F 64.4 °F 58% 29.69 in 10.0 mi SSW 9.2 mph - N/A   Clear
3:55 PM 80.6 °F 82.3 °F 64.4 °F 58% 29.69 in 9.0 mi SSW 13.8 mph 17.3 mph N/A   Clear
4:15 PM 80.6 °F 81.8 °F 62.6 °F 54% 29.68 in 10.0 mi South 11.5 mph 17.3 mph N/A   Clear
4:35 PM 80.6 °F 82.3 °F 64.4 °F 58% 29.67 in 10.0 mi South 10.4 mph 17.3 mph N/A   Clear
4:55 PM 80.6 °F 82.3 °F 64.4 °F 58% 29.67 in 10.0 mi SSW 11.5 mph 16.1 mph N/A   Clear
5:15 PM 80.6 °F 82.3 °F 64.4 °F 58% 29.67 in 9.0 mi South 10.4 mph - N/A   Clear
5:35 PM 80.6 °F 82.3 °F 64.4 °F 58% 29.67 in 9.0 mi South 13.8 mph 20.7 mph N/A   Clear
5:55 PM 80.6 °F 82.3 °F 64.4 °F 58% 29.67 in 10.0 mi South 11.5 mph - N/A   Clear
6:15 PM 78.8 °F - 62.6 °F 57% 29.68 in 10.0 mi South 11.5 mph 16.1 mph N/A   Clear
6:35 PM 78.8 °F - 62.6 °F 57% 29.68 in 10.0 mi South 11.5 mph - N/A   Partly Cloudy
6:55 PM 78.8 °F - 64.4 °F 61% 29.68 in 9.0 mi South 8.1 mph - N/A   Partly Cloudy
7:15 PM 77.0 °F - 64.4 °F 65% 29.68 in 10.0 mi South 6.9 mph - N/A   Clear
7:35 PM 75.2 °F - 64.4 °F 69% 29.69 in 9.0 mi Calm Calm - N/A   Clear
7:55 PM 73.4 °F - 64.4 °F 73% 29.69 in 9.0 mi Calm Calm - N/A   Clear
8:15 PM 73.4 °F - 62.6 °F 69% 29.69 in 10.0 mi Calm Calm - N/A   Clear
8:35 PM 73.4 °F - 64.4 °F 73% 29.69 in 10.0 mi SSE 4.6 mph - N/A   Clear
8:55 PM 73.4 °F - 64.4 °F 73% 29.69 in 10.0 mi SE 4.6 mph - N/A   Clear
9:15 PM 73.4 °F - 62.6 °F 69% 29.70 in 10.0 mi SE 6.9 mph - N/A   Clear
9:35 PM 71.6 °F - 64.4 °F 78% 29.71 in 10.0 mi SSE 8.1 mph - N/A   Clear
9:55 PM 71.6 °F - 64.4 °F 78% 29.72 in 10.0 mi SSE 9.2 mph - N/A   Clear
10:15 PM 71.6 °F - 64.4 °F 78% 29.73 in 10.0 mi SSE 9.2 mph 16.1 mph N/A   Clear
10:35 PM 71.6 °F - 64.4 °F 78% 29.73 in 10.0 mi SSE 10.4 mph - N/A   Clear
10:55 PM 69.8 °F - 64.4 °F 83% 29.74 in 10.0 mi SSE 13.8 mph 21.9 mph N/A   Clear
11:15 PM 69.8 °F - 64.4 °F 83% 29.73 in 10.0 mi SSE 8.1 mph 16.1 mph N/A   Clear
11:35 PM 69.8 °F - 64.4 °F 83% 29.74 in 10.0 mi South 11.5 mph 19.6 mph N/A   Partly Cloudy
11:55 PM 69.8 °F - 64.4 °F 83% 29.74 in 8.0 mi South 10.4 mph 16.1 mph N/A   Mostly Cloudy